Simultaneous Nadir Overpasses (SNOs) Predictions

Prediction of SNOs between AQUA and NPP Satellite Orbit:

Table of predicted SNOs for the next 14.0 days since TLE Epoch: 2/5/2022
Index Date (AQUA) Time (AQUA) Lat,Lon (AQUA) SZA (AQUA ) Date (NPP) Time (NPP) Lat,Lon (NPP) SZA (NPP ) Distance(km) Time Diff (sec)
1 02/07/2022 14:05:27 76.59,-150.06 112.02 02/07/2022 14:04:34 76.60,-149.96 112.04 2.80 53
2 02/07/2022 14:54:43 -77.13, 19.52 68.63 02/07/2022 14:55:08 -77.13, 19.44 68.63 2.08 25
3 02/10/2022 06:21:49 76.70, -33.78 111.06 02/10/2022 06:21:27 76.70, -33.83 111.09 1.46 22
4 02/10/2022 07:10:57 -77.60, 137.32 70.04 02/10/2022 07:11:52 -77.60, 137.32 70.08 0.16 55
5 02/12/2022 21:48:55 -76.38, -86.61 69.43 02/12/2022 21:47:46 -76.39, -86.54 69.39 1.83 69
6 02/12/2022 22:38:01 77.30, 84.36 109.48 02/12/2022 22:38:09 77.31, 84.45 109.45 2.53 8
7 02/15/2022 14:05:11 -76.78, 30.65 70.79 02/15/2022 14:04:33 -76.79, 30.73 70.77 2.00 38
8 02/15/2022 14:54:18 77.63,-158.37 108.17 02/15/2022 14:54:57 77.64,-158.26 108.11 2.91 39
9 02/18/2022 06:21:31 -76.96, 147.21 71.93 02/18/2022 06:21:25 -76.95, 147.16 71.91 1.45 6



Historial Predications of SNOs between AQUA and NPP
